Chariton, IA

3:32 AM CDT on August 22, 2017 (GMT -0500)
Chariton Municipal

Weather History for KCNC - January, 2013

Change the Weather History Date:

Wednesday, January 23, 2013

  Actual Average Record
Temperature  
Mean Temperature 22 °F -  
Max Temperature 35 °F 38 °F 58 °F (1967)
Min Temperature 8 °F 15 °F -20 °F (1963)
Degree Days  
Heating Degree Days 44    
Moisture  
Dew Point 9 °F    
Average Humidity 62    
Maximum Humidity 79    
Minimum Humidity 48    
Precipitation  
Precipitation 0.00 in - - ()
Sea Level Pressure  
Sea Level Pressure 30.27 in    
Wind  
Wind Speed 10 mph (West)    
Max Wind Speed 24 mph    
Max Gust Speed 31 mph    
Visibility 10 miles    
Events      
Averages and records for this station are not official NWS values.
T = Trace of Precipitation, MM = Missing Value Source: NWS Daily Summary

Daily Weather History Graph

Daily Weather History Graph

Search for Another Location

Airport or City:

Trip Planner

Search our weather history database for the weather conditions in past years. The results will help you decide how hot, cold, wet, or windy it might be!

Date:

Astronomy

Jan. 23, 2013 Rise Set
Actual Time 7:31 AM CST 5:19 PM CST
Civil Twilight 7:01 AM CST 5:49 PM CST
Nautical Twilight 6:28 AM CST 6:22 PM CST
Astronomical Twilight 5:55 AM CST 6:55 PM CST
Moon 2:30 PM CST (1/23) 4:43 AM CST (1/23)
Length of Visible Light 10h 47m
Length of Day
9h 48m
Waxing Gibbous, 89% of the Moon is Illuminated
Jan 23
Waxing Gibbous
Jan 26
Full
Feb 3
Last Quarter
Feb 10
New
Feb 17
First Quarter

Hourly Weather History & Observations

Time (CST) Temp. Windchill Dew Point Humidity Pressure Visibility Wind Dir Wind Speed Gust Speed Precip Events Conditions
12:15 AM 12.2 °F 6.1 °F 3.2 °F 67% 30.31 in 10.0 mi SSE 3.5 mph - N/A   Clear
12:35 AM 12.2 °F 2.9 °F 3.2 °F 67% 30.29 in 10.0 mi SSE 5.8 mph - N/A   Clear
12:55 AM 12.2 °F 1.7 °F 3.2 °F 67% 30.28 in 10.0 mi South 6.9 mph - N/A   Clear
1:35 AM 12.2 °F 2.9 °F 3.2 °F 67% 30.28 in 10.0 mi South 5.8 mph - N/A   Clear
1:55 AM 12.2 °F 1.7 °F 3.2 °F 67% 30.27 in 10.0 mi South 6.9 mph - N/A   Clear
2:15 AM 12.2 °F 1.7 °F 3.2 °F 67% 30.27 in 10.0 mi South 6.9 mph - N/A   Clear
2:35 AM 12.2 °F 1.7 °F 5.0 °F 73% 30.26 in 10.0 mi South 6.9 mph - N/A   Clear
2:55 AM 12.2 °F 2.9 °F 3.2 °F 67% 30.27 in 10.0 mi South 5.8 mph - N/A   Clear
3:46 AM 12.2 °F 2.9 °F 5.0 °F 73% 30.25 in 10.0 mi South 5.8 mph - N/A   Clear
3:55 AM 12.2 °F 4.3 °F 5.0 °F 73% 30.25 in 10.0 mi South 4.6 mph - N/A   Clear
4:15 AM 10.4 °F 4.0 °F 3.2 °F 73% 30.24 in 10.0 mi South 3.5 mph - N/A   Clear
4:17 AM 10.4 °F 4.0 °F 3.2 °F 73% 30.24 in 10.0 mi South 3.5 mph - N/A   Clear
4:35 AM 10.4 °F 0.8 °F 5.0 °F 79% 30.24 in 10.0 mi South 5.8 mph - N/A   Clear
4:55 AM 12.2 °F 1.7 °F 6.8 °F 79% 30.23 in 10.0 mi SSW 6.9 mph - N/A   Clear
5:15 AM 12.2 °F -0.2 °F 6.8 °F 79% 30.23 in 10.0 mi SSW 9.2 mph - N/A   Clear
5:35 AM 12.2 °F -1.0 °F 6.8 °F 79% 30.22 in 10.0 mi SSW 10.4 mph - N/A   Clear
5:55 AM 14.0 °F 2.0 °F 6.8 °F 73% 30.21 in 10.0 mi South 9.2 mph - N/A   Clear
6:15 AM 14.0 °F 2.0 °F 6.8 °F 73% 30.21 in 10.0 mi SSW 9.2 mph - N/A   Clear
6:35 AM 14.0 °F 2.9 °F 6.8 °F 73% 30.20 in 10.0 mi South 8.1 mph - N/A   Clear
6:55 AM 14.0 °F 3.9 °F 6.8 °F 73% 30.22 in 10.0 mi SSW 6.9 mph - N/A   Clear
7:15 AM 14.0 °F 1.2 °F 6.8 °F 73% 30.20 in 10.0 mi SSW 10.4 mph - N/A   Clear
7:35 AM 14.0 °F 1.2 °F 6.8 °F 73% 30.19 in 10.0 mi SSW 10.4 mph - N/A   Clear
7:55 AM 15.8 °F 5.1 °F 6.8 °F 68% 30.20 in 10.0 mi SSW 8.1 mph - N/A   Clear
8:15 AM 15.8 °F 3.4 °F 8.6 °F 73% 30.19 in 10.0 mi SSW 10.4 mph - N/A   Clear
8:35 AM 17.6 °F 7.3 °F 8.6 °F 68% 30.20 in 10.0 mi SSW 8.1 mph - N/A   Clear
8:55 AM 17.6 °F 8.2 °F 10.4 °F 73% 30.20 in 10.0 mi SW 6.9 mph - N/A   Clear
9:15 AM 19.4 °F 7.2 °F 10.4 °F 68% 30.19 in 10.0 mi SW 11.5 mph 16.1 mph N/A   Clear
9:35 AM 21.2 °F 9.5 °F 12.2 °F 68% 30.20 in 10.0 mi SW 11.5 mph - N/A   Clear
9:55 AM 24.8 °F 15.3 °F 12.2 °F 59% 30.21 in 10.0 mi SW 9.2 mph - N/A   Clear
10:15 AM 26.6 °F 16.2 °F 12.2 °F 55% 30.20 in 10.0 mi WSW 11.5 mph - N/A   Clear
10:35 AM 28.4 °F 17.5 °F 15.8 °F 59% 30.21 in 10.0 mi West 13.8 mph - N/A   Clear
10:55 AM 28.4 °F 17.5 °F 15.8 °F 59% 30.21 in 10.0 mi West 13.8 mph - N/A   Clear
11:15 AM 30.2 °F 20.8 °F 15.8 °F 55% 30.21 in 10.0 mi WNW 11.5 mph - N/A   Clear
11:35 AM 30.2 °F 19.8 °F 17.6 °F 60% 30.21 in 10.0 mi WNW 13.8 mph - N/A   Clear
11:55 AM 33.8 °F 24.8 °F 17.6 °F 52% 30.20 in 10.0 mi WNW 12.7 mph 17.3 mph N/A   Clear
12:15 PM 33.8 °F 24.8 °F 17.6 °F 52% 30.19 in 10.0 mi NW 12.7 mph 18.4 mph N/A   Clear
12:35 PM 33.8 °F 24.3 °F 17.6 °F 52% 30.19 in 10.0 mi WNW 13.8 mph 18.4 mph N/A   Clear
12:55 PM 35.6 °F 26.2 °F 17.6 °F 48% 30.20 in 10.0 mi NNW 15.0 mph 19.6 mph N/A   Clear
1:15 PM 35.6 °F 25.9 °F 17.6 °F 48% 30.19 in 10.0 mi NW 16.1 mph 23.0 mph N/A   Clear
1:35 PM 33.8 °F 23.5 °F 17.6 °F 52% 30.19 in 10.0 mi NW 16.1 mph 25.3 mph N/A   Clear
1:55 PM 35.6 °F 24.8 °F 17.6 °F 48% 30.19 in 10.0 mi NW 19.6 mph 24.2 mph N/A   Clear
2:15 PM 33.8 °F 22.8 °F 17.6 °F 52% 30.20 in 10.0 mi NNW 18.4 mph 23.0 mph N/A   Clear
2:35 PM 33.8 °F 23.2 °F 17.6 °F 52% 30.21 in 10.0 mi NNW 17.3 mph 20.7 mph N/A   Clear
2:55 PM 33.8 °F 23.5 °F 17.6 °F 52% 30.22 in 10.0 mi NNW 16.1 mph 23.0 mph N/A   Clear
3:15 PM 32.0 °F 22.1 °F 17.6 °F 55% 30.23 in 10.0 mi NNW 13.8 mph - N/A   Clear
3:35 PM 32.0 °F 20.5 °F 15.8 °F 51% 30.24 in 10.0 mi NNW 18.4 mph 23.0 mph N/A   Clear
3:55 PM 32.0 °F 20.1 °F 17.6 °F 55% 30.24 in 10.0 mi NNW 19.6 mph 24.2 mph N/A   Clear
4:15 PM 32.0 °F 20.1 °F 15.8 °F 51% 30.25 in 10.0 mi NNW 19.6 mph 25.3 mph N/A   Clear
4:35 PM 30.2 °F 19.3 °F 17.6 °F 60% 30.26 in 10.0 mi NNW 15.0 mph 23.0 mph N/A   Clear
4:55 PM 28.4 °F 16.6 °F 15.8 °F 59% 30.27 in 10.0 mi NW 16.1 mph 21.9 mph N/A   Clear
5:15 PM 28.4 °F 15.8 °F 15.8 °F 59% 30.28 in 10.0 mi NNW 18.4 mph 24.2 mph N/A   Clear
5:35 PM 26.6 °F 14.3 °F 15.8 °F 64% 30.29 in 10.0 mi NNW 16.1 mph 19.6 mph N/A   Clear
5:55 PM 26.6 °F 14.3 °F 15.8 °F 64% 30.30 in 10.0 mi NNW 16.1 mph 24.2 mph N/A   Clear
6:15 PM 26.6 °F 15.2 °F 14.0 °F 59% 30.31 in 10.0 mi NNW 13.8 mph 19.6 mph N/A   Clear
6:35 PM 24.8 °F 12.4 °F 14.0 °F 64% 30.32 in 10.0 mi NNW 15.0 mph 25.3 mph N/A   Clear
6:55 PM 24.8 °F 11.1 °F 12.2 °F 59% 30.33 in 10.0 mi NNW 18.4 mph 27.6 mph N/A   Clear
7:15 PM 23.0 °F 9.2 °F 10.4 °F 59% 30.35 in 10.0 mi NNW 17.3 mph 24.2 mph N/A   Clear
7:35 PM 23.0 °F 9.6 °F 10.4 °F 59% 30.36 in 10.0 mi NNW 16.1 mph - N/A   Clear
7:55 PM 21.2 °F 7.3 °F 10.4 °F 63% 30.36 in 10.0 mi NNW 16.1 mph 20.7 mph N/A   Clear
8:15 PM 19.4 °F 2.1 °F 6.8 °F 58% 30.37 in 10.0 mi North 24.2 mph 31.1 mph N/A   Clear
8:35 PM 19.4 °F 4.1 °F 3.2 °F 49% 30.38 in 10.0 mi North 18.4 mph 24.2 mph N/A   Clear
8:55 PM 17.6 °F 1.3 °F 1.4 °F 49% 30.39 in 10.0 mi North 19.6 mph 29.9 mph N/A   Clear
9:15 PM 15.8 °F -0.6 °F 1.4 °F 53% 30.40 in 10.0 mi North 18.4 mph 26.5 mph N/A   Clear
9:35 PM 15.8 °F -0.6 °F 1.4 °F 53% 30.42 in 10.0 mi North 18.4 mph 23.0 mph N/A   Clear
9:55 PM 14.0 °F -2.5 °F 1.4 °F 57% 30.44 in 10.0 mi North 17.3 mph 26.5 mph N/A   Clear
10:15 PM 12.2 °F -5.8 °F -0.4 °F 57% 30.44 in 10.0 mi North 19.6 mph - N/A   Clear
10:35 PM 10.4 °F -7.2 °F -0.4 °F 62% 30.46 in 10.0 mi North 17.3 mph 25.3 mph N/A   Clear
10:55 PM 10.4 °F -6.6 °F -0.4 °F 62% 30.47 in 10.0 mi North 16.1 mph 21.9 mph N/A   Clear
11:15 PM 8.6 °F -8.3 °F -2.2 °F 62% 30.48 in 10.0 mi North 15.0 mph 25.3 mph N/A   Clear
11:55 PM 8.6 °F -6.3 °F -2.2 °F 62% 30.51 in 10.0 mi North 11.5 mph - N/A   Clear